Location: Aciu?a
(46.2833°N, 22.4500°E)
Time: 22:20:56
(UTC+00:00)

BREEZE-M R/B - Visible Passes

Search period start: 19 May 2022 00:00
Search period end: 29 May 2022 00:00
Orbit: 720 x 26449 km, 49.0° (Epoch: 18 May)

Date Brightness Start Highest point End Pass type
(mag) Time Alt. Az. Time Alt. Az. Time Alt. Az.
19 May 4.5 00:38:36 10° WNW 00:51:51 39° SW 00:56:29 10° SSE visible
19 May 4.4 23:56:51 10° WNW 00:14:28 54° SW 00:19:27 10° SSE visible
20 May 4.5 23:13:44 10° WNW 23:36:48 70° SW 23:42:11 10° SE visible
21 May 4.7 22:28:17 10° WNW 22:58:52 83° SSW 23:04:45 10° ESE visible
22 May 5.1 21:38:50 10° W 22:20:38 89° NNE 22:27:13 10° ESE visible
23 May 5.5 20:41:43 10° W 21:42:09 84° N 21:49:35 10° E visible
24 May 5.9 19:27:55 10° WSW 21:03:24 82° N 21:11:54 10° E visible
25 May 6.3 17:45:44 10° WSW 20:24:22 82° N 20:34:10 10° E visible
26 May 6.5 16:14:21 10° SW 19:45:03 84° N 19:56:22 10° E visible
27 May 6.6 15:07:50 10° SSW 19:05:25 87° NNW 19:18:32 10° ENE visible
